Weather History for KENW - July, 2012

Change the Weather History Date:

Wednesday, July 4, 2012

  Actual Average Record
Temperature  
Mean Temperature 92 °F -  
Max Temperature 105 °F 77 °F 105 °F (2012)
Min Temperature 79 °F 59 °F 46 °F (2008)
Cooling Degree Days 27    
Growing Degree Days 42 (Base 50)    
Moisture  
Dew Point 68 °F    
Average Humidity 51    
Maximum Humidity 74    
Minimum Humidity 23    
Precipitation  
Precipitation 0.00 in - - ()
Sea Level Pressure  
Sea Level Pressure 29.83 in    
Wind  
Wind Speed 10 mph (WSW)    
Max Wind Speed 14 mph    
Max Gust Speed 24 mph    
Visibility 10 miles    
Events      
Averages and records for this station are not official NWS values.
T = Trace of Precipitation, MM = Missing Value Source: NWS Daily Summary

Daily Weather History Graph

Daily Weather History Graph

Search for Another Location

Airport or City:

Trip Planner

Search our weather history database for the weather conditions in past years. The results will help you decide how hot, cold, wet, or windy it might be!

Date:

Astronomy

Jul. 04, 2012 Rise Set
Actual Time 5:19 AM CDT 8:32 PM CDT
Civil Twilight 4:45 AM CDT 9:06 PM CDT
Nautical Twilight 4:00 AM CDT 9:51 PM CDT
Astronomical Twilight 3:06 AM CDT 10:45 PM CDT
Moon 9:08 PM CDT (7/4) 6:24 AM CDT (7/4)
Length of Visible Light 16h 21m
Length of Day
15h 12m
Full, 99% of the Moon is Illuminated
Jul 4
Full
Jul 10
Last Quarter
Jul 18
New
Jul 26
First Quarter
Aug 1
Full

Hourly Weather History & Observations

Time (CDT) Temp. Heat Index Dew Point Humidity Pressure Visibility Wind Dir Wind Speed Gust Speed Precip Events Conditions
12:53 AM 82.0 °F 86.3 °F 71.1 °F 69% 29.81 in 10.0 mi WSW 9.2 mph - N/A   Clear
1:53 AM 82.9 °F 87.5 °F 71.1 °F 67% 29.82 in 10.0 mi WSW 9.2 mph - N/A   Clear
2:53 AM 82.0 °F 86.3 °F 71.1 °F 69% 29.82 in 10.0 mi SW 8.1 mph - N/A   Clear
3:53 AM 81.0 °F 84.4 °F 70.0 °F 69% 29.82 in 10.0 mi WSW 10.4 mph - N/A   Clear
4:53 AM 79.0 °F - 70.0 °F 74% 29.83 in 10.0 mi WSW 8.1 mph - N/A   Clear
5:53 AM 80.1 °F 83.2 °F 70.0 °F 71% 29.83 in 10.0 mi WSW 8.1 mph - N/A   Clear
6:53 AM 82.0 °F 85.9 °F 70.0 °F 67% 29.85 in 10.0 mi West 9.2 mph - N/A   Clear
7:53 AM 86.0 °F 91.5 °F 71.1 °F 61% 29.85 in 10.0 mi West 10.4 mph - N/A   Clear
8:53 AM 90.0 °F 95.4 °F 70.0 °F 52% 29.85 in 10.0 mi WSW 11.5 mph - N/A   Clear
9:53 AM 93.9 °F 100.8 °F 71.1 °F 47% 29.84 in 10.0 mi WSW 11.5 mph - N/A   Clear
10:53 AM 97.0 °F 102.2 °F 68.0 °F 39% 29.85 in 10.0 mi West 13.8 mph 20.7 mph N/A   Clear
11:53 AM 100.0 °F 105.6 °F 68.0 °F 35% 29.84 in 10.0 mi West 13.8 mph - N/A   Clear
12:53 PM 102.0 °F 107.3 °F 66.9 °F 32% 29.84 in 10.0 mi WSW 10.4 mph 24.2 mph N/A   Partly Cloudy
1:53 PM 102.9 °F 106.8 °F 64.9 °F 29% 29.83 in 10.0 mi WSW 11.5 mph 24.2 mph N/A   Partly Cloudy
2:53 PM 102.9 °F 105.5 °F 63.0 °F 27% 29.83 in 10.0 mi West 12.7 mph 19.6 mph N/A   Clear
3:53 PM 105.1 °F 106.4 °F 60.1 °F 23% 29.82 in 10.0 mi West 12.7 mph - N/A   Clear
5:53 PM 100.9 °F 105.3 °F 66.0 °F 32% 29.80 in 10.0 mi WSW 11.5 mph - N/A   Partly Cloudy
6:53 PM 98.1 °F 103.0 °F 68.0 °F 37% 29.81 in 10.0 mi WSW 12.7 mph 20.7 mph N/A   Clear
7:53 PM 93.9 °F 97.5 °F 66.9 °F 41% 29.82 in 10.0 mi WSW 11.5 mph - N/A   Clear
8:53 PM 90.0 °F 93.6 °F 68.0 °F 48% 29.83 in 10.0 mi WSW 9.2 mph - N/A   Clear
9:53 PM 87.1 °F 91.3 °F 69.1 °F 55% 29.85 in 10.0 mi WSW 9.2 mph - N/A   Clear
10:53 PM 84.9 °F 88.8 °F 69.1 °F 59% 29.86 in 10.0 mi WSW 6.9 mph - N/A   Clear
11:53 PM 84.0 °F 88.4 °F 70.0 °F 63% 29.87 in 10.0 mi West 9.2 mph - N/A   Clear